Вернуться в каталог

HEBEI LINXI 1

АктивенНаукаSSO
NORAD 59920·PAYLOAD·🇨🇳 China
Это название спутника еще не подтверждено официальными источниками.

Запущен May 30, 2024 с Jiuquan Satellite Launch Center

Loading…

Ближайшие Пролёты (ближайшие 24 часа)

TLE

СвежийSource: Space-Track

Эпоха: Sep 14, 2026, 23:16 UTC

1 59920U 24105D   26257.96950604  .00004714  00000-0  20079-3 0  9995
2 59920  97.5806 277.7783 0009649 264.4117  95.6019 15.23437968126924

Отслеживайте HEBEI LINXI 1 в реальном времени с AllMySat

Download on the App Store